Theta_e
341 339 338 340 342 340 340 344 337 341 347 347 347 346 346 345 344 346 345 345 344 343 342 338 340 341 340 334 331 329 330 330 332 329 329 329 331 333 328 332 332 329 325
337 336 335 341 340 339 339 341 341 348 348 350 346 348 347 348 344 345 346 346 345 345 344 336 337 341 341 341 337 333 332 329 330 331 333 332 330 329 331 333 332 333 333
338 336 336 336 338 340 340 342 345 343 343 345 346 347 345 344 346 344 345 344 345 345 346 344 336 335 340 340 342 340 338 337 336 335 332 332 333 333 332 330 332 331 332
338 339 338 338 342 339 335 342 347 344 344 343 345 346 347 347 344 343 346 344 344 343 343 345 346 340 336 339 341 339 341 339 339 333 337 338 337 337 336 334 333 332 331
339 339 340 341 342 346 347 348 346 345 348 346 341 342 343 344 346 346 344 343 344 345 343 344 347 345 341 338 340 342 343 342 340 338 338 338 340 338 339 339 336 335 334
338 337 341 343 343 345 346 345 346 345 347 346 343 348 346 343 343 346 346 345 345 345 342 342 347 341 346 344 340 340 340 339 340 338 338 338 338 337 338 338 339 339 339
340 342 344 344 344 343 346 346 343 342 345 344 347 346 346 346 346 343 345 343 344 343 342 341 344 345 345 347 346 341 340 340 341 342 341 340 340 338 336 338 339 337 339
343 343 345 344 345 344 343 341 340 341 345 343 342 341 342 341 342 345 344 345 344 344 343 345 346 344 343 345 347 344 340 339 338 339 340 340 340 340 340 340 341 341 340
338 345 344 344 345 343 343 345 345 346 344 342 344 344 344 344 343 344 345 340 345 344 346 345 344 344 342 339 342 343 340 337 338 339 340 340 339 340 341 342 343 343 343
343 343 344 342 344 342 345 345 344 344 341 342 343 343 344 341 344 343 344 344 344 344 344 344 344 343 341 338 338 341 340 337 339 338 335 339 341 339 338 340 341 339 340
343 340 340 342 342 342 342 340 340 341 342 342 340 341 342 341 342 343 342 344 345 344 344 343 340 340 341 342 341 336 338 339 339 338 339 340 338 335 335 335 335 336 337
343 338 342 343 339 340 341 341 342 342 342 342 341 342 342 342 342 345 343 343 342 343 342 338 339 339 339 339 340 339 339 339 339 339 338 337 335 335 335 335 335 335 336
342 339 343 342 342 342 342 342 342 342 343 342 343 342 342 342 342 342 342 343 342 340 342 342 341 341 340 338 337 338 338 338 337 336 336 336 336 336 335 335 334 333 333
341 336 341 341 342 342 342 341 341 341 342 342 342 342 343 343 343 342 342 341 342 340 339 339 337 337 337 337 337 337 337 337 336 335 334 334 333 333 332 332 332 332 331
341 340 342 343 343 343 341 342 340 341 342 342 342 341 341 342 343 343 342 342 342 340 339 337 336 336 336 337 336 336 335 334 333 332 332 332 332 331 330 329 328 328 329
340 336 340 344 342 339 341 340 337 338 338 338 339 341 342 341 340 340 342 341 342 341 339 337 336 335 336 336 336 335 334 333 331 331 331 331 330 328 328 327 327 326 326
341 339 339 339 339 338 337 339 338 334 335 337 338 340 340 341 341 340 341 340 341 340 340 337 336 335 335 335 335 334 332 331 331 331 331 329 328 327 325 325 326 325 325
338 339 339 337 336 336 337 337 335 333 333 336 336 337 338 336 337 338 340 341 340 341 339 337 336 335 334 334 333 332 331 331 331 330 329 328 325 324 323 323 323 323 322
338 337 336 337 336 336 336 336 336 334 332 332 331 333 337 337 337 337 337 338 339 339 339 338 336 333 332 332 332 331 331 330 329 328 327 324 322 322 321 321 321 320 320
338 336 336 336 336 336 334 334 333 334 332 324 323 324 329 333 334 334 335 333 336 336 335 335 335 333 332 331 330 330 329 328 327 324 323 322 321 320 320 319 319 318 318
338 336 336 336 334 333 329 334 333 331 332 325 323 323 322 323 328 328 332 333 332 334 334 334 333 332 331 329 328 327 326 325 324 323 322 321 321 320 319 315 311 309 308
335 337 338 337 333 327 326 330 329 327 327 327 326 326 327 325 323 324 330 333 333 330 329 329 328 327 326 325 324 324 323 323 323 323 322 321 321 319 319 317 315 307 306
336 337 336 336 332 327 327 326 328 328 327 327 328 327 328 328 325 322 322 322 325 327 327 328 329 328 328 326 325 325 325 326 324 320 321 322 321 320 319 316 315 311 307
338 336 336 336 333 327 327 326 328 329 327 327 325 323 323 323 323 320 318 317 317 319 318 323 320 319 313 317 322 319 322 322 321 321 319 322 320 320 318 316 315 314 311
339 336 336 335 334 327 327 327 330 331 329 328 326 324 323 322 322 322 320 318 316 316 313 312 311 310 310 307 308 316 318 316 317 324 322 320 319 317 316 317 315 314 313
340 339 335 335 334 328 327 327 329 330 329 327 324 323 323 322 321 322 324 323 322 320 320 316 316 314 314 313 313 305 313 313 314 322 321 318 317 319 316 317 317 316 315
Wind_Speed
12 13 13 12 11 4 5 6 10 14 10 12 11 8 10 11 11 10 14 9 10 11 13 16 12 11 11 8 9 8 8 7 7 7 7 6 7 9 9 9 8 9 9
12 11 14 12 10 10 14 15 16 10 13 12 12 12 12 11 11 14 15 12 11 14 13 14 16 14 12 12 11 8 8 8 7 7 8 8 9 10 11 11 11 11 11
14 15 14 15 15 19 20 18 16 18 19 15 14 15 15 16 17 16 17 21 18 20 14 12 14 17 14 13 13 12 10 10 9 9 10 12 12 12 13 13 13 13 14
17 15 19 19 15 20 19 27 15 13 14 16 18 19 17 15 19 19 18 17 19 20 19 15 14 12 16 14 14 14 14 15 14 14 14 16 16 16 18 17 16 15 15
18 17 19 20 16 16 15 11 15 13 13 13 15 18 21 22 22 20 22 21 19 21 21 20 15 11 12 14 15 16 16 15 13 12 10 11 10 12 16 19 19 18 18
12 16 16 15 15 13 13 13 15 15 14 13 12 14 17 17 19 23 21 20 19 20 22 28 14 14 9 11 15 17 16 15 15 13 15 14 13 13 11 11 17 22 23
6 10 9 10 11 12 11 11 12 9 10 12 16 16 15 15 20 21 21 18 19 19 17 23 19 14 12 15 14 17 18 17 15 16 16 17 16 17 16 18 17 15 22
5 6 6 5 7 8 9 9 11 12 18 17 20 18 19 20 24 24 23 21 19 18 14 15 18 15 17 17 15 13 12 12 14 14 15 17 16 17 21 23 20 18 17
5 7 8 6 10 9 5 12 10 13 16 15 14 14 6 8 9 16 18 18 22 20 15 14 20 19 19 28 15 11 12 13 14 13 15 16 16 15 18 19 18 19 21
3 7 9 9 9 10 13 14 15 16 16 16 15 17 19 16 7 4 13 18 13 10 17 13 16 18 13 12 28 10 6 8 12 14 15 13 13 10 12 14 16 17 19
2 9 9 8 9 10 9 9 10 11 12 13 14 15 15 17 17 13 3 9 7 10 10 14 6 8 4 7 9 4 6 12 16 15 11 10 10 11 12 12 12 12 14
8 10 8 7 5 3 4 4 5 7 7 9 9 8 7 9 11 12 8 6 5 6 2 4 5 6 6 6 3 0 7 6 6 6 6 7 8 8 8 8 10 12 12
10 7 7 6 5 4 3 4 4 3 7 7 6 5 8 9 9 8 11 11 10 10 8 6 7 5 4 5 6 6 4 2 1 3 5 7 8 8 8 7 7 7 8
10 8 4 3 4 5 8 9 7 6 5 5 6 6 1 6 7 8 9 15 15 12 10 9 4 2 3 2 3 1 1 1 2 3 2 2 2 1 2 4 5 7 7
3 9 5 6 6 7 7 5 5 2 5 8 9 7 6 5 2 3 7 10 15 12 11 9 7 7 2 3 2 2 3 4 2 0 0 1 1 2 3 5 7 7 8
5 5 7 7 7 5 6 4 7 6 4 6 8 9 10 8 6 5 6 6 11 9 12 13 9 9 8 7 5 3 2 1 1 1 1 1 1 2 4 6 6 6 7
7 9 9 9 9 12 11 9 10 8 9 9 10 9 8 8 11 8 6 5 7 9 9 14 10 11 11 5 4 2 1 1 2 3 2 2 2 4 6 7 6 7 7
7 7 7 7 6 6 9 7 7 9 11 14 12 10 14 7 7 8 10 8 7 6 8 13 15 14 11 8 6 2 1 2 2 1 1 1 3 5 6 6 6 6 6
6 5 6 6 5 7 8 8 10 12 11 12 11 11 12 14 17 12 9 8 7 5 5 8 14 12 9 7 4 2 1 4 2 1 1 3 2 3 5 5 5 6 7
5 4 6 6 7 6 7 8 8 10 8 14 15 15 14 14 15 14 12 12 8 6 7 7 9 9 7 6 3 3 2 2 2 2 1 1 2 5 5 5 7 8 8
5 6 5 7 5 3 5 9 5 8 7 11 13 14 15 13 10 10 11 11 12 8 9 9 8 7 5 5 4 4 4 3 3 5 1 2 5 7 8 9 11 10 9
5 7 6 4 4 2 5 7 5 6 8 10 13 13 12 12 12 12 11 9 9 10 9 10 9 7 5 6 4 3 3 1 2 3 0 1 0 3 6 11 15 12 10
7 8 8 6 2 2 3 4 7 6 7 8 10 11 5 9 8 9 8 7 7 8 8 8 9 7 6 2 1 0 2 3 3 3 1 2 1 4 6 12 13 13 14
10 8 9 8 4 4 4 5 6 5 6 5 4 6 6 6 5 8 8 8 8 7 7 5 3 3 2 3 4 3 1 1 2 2 2 2 2 5 9 9 8 9 11
12 10 11 11 9 6 6 7 7 5 3 5 2 3 4 4 5 5 6 7 7 7 7 6 6 5 7 2 4 3 3 6 12 5 2 2 3 5 10 11 10 10 8
11 11 12 11 11 8 8 7 10 8 4 2 4 3 2 2 3 4 5 5 4 5 5 8 12 13 11 10 10 2 4 3 7 5 2 3 5 7 8 10 10 12 11
Wind_Direction
211 214 221 233 235 246 289 246 245 205 245 222 214 254 240 243 224 246 268 246 261 277 278 262 254 249 244 240 236 234 233 237 243 257 266 260 262 268 275 268 272 269 271
245 243 252 245 248 272 275 253 259 229 223 228 234 238 246 248 250 236 258 254 256 278 285 265 257 254 245 240 238 233 242 242 240 244 252 260 266 269 270 272 275 274 273
245 246 253 259 267 267 268 255 244 239 232 220 227 235 233 246 233 244 250 259 261 268 277 273 262 258 255 249 242 236 236 232 233 243 257 262 264 266 264 263 267 275 272
244 252 256 254 274 253 256 250 253 256 252 240 236 237 250 238 256 246 243 248 258 263 264 269 266 258 256 258 244 234 240 242 261 252 275 271 270 277 276 271 267 265 270
245 240 251 267 258 258 279 235 256 254 256 254 256 253 249 247 248 247 252 251 247 259 263 255 264 255 246 251 253 250 250 256 253 265 261 266 273 281 286 265 267 269 268
226 251 264 265 249 267 256 245 254 254 252 269 271 259 261 251 264 245 247 257 249 254 264 255 249 272 261 263 247 246 241 248 254 265 258 266 269 276 288 291 279 268 266
264 263 270 261 259 255 256 253 264 263 260 242 259 263 255 257 254 263 251 247 248 261 259 229 251 253 268 255 245 239 244 249 254 261 255 263 269 268 275 286 284 287 271
289 286 291 287 265 262 271 287 283 270 261 268 257 268 267 267 256 250 241 242 242 253 253 227 232 240 241 259 233 238 235 253 266 262 265 271 273 270 270 274 278 278 283
351 345 321 300 287 292 304 297 285 280 281 273 258 247 246 248 288 240 245 210 241 233 187 226 243 238 245 262 292 223 238 258 262 265 270 272 273 267 261 269 275 278 276
282 291 297 281 265 272 248 259 270 286 287 277 267 255 248 252 279 285 226 224 221 222 216 235 261 270 289 299 243 217 246 247 253 265 276 275 279 274 264 268 274 279 278
353 310 289 284 276 281 278 272 273 283 283 283 275 267 262 246 248 260 247 213 223 227 228 245 252 274 275 220 221 282 223 242 244 263 268 266 267 276 278 280 281 284 288
306 320 317 335 351 322 308 305 299 306 312 301 289 271 258 263 236 236 239 188 159 95 164 205 179 220 234 243 271 171 206 221 228 237 255 263 275 280 282 285 290 292 289
306 316 334 354 7 26 350 325 310 318 325 333 312 273 248 257 248 240 224 191 169 165 135 145 139 151 127 108 99 97 101 130 230 257 267 275 281 286 292 302 309 312 312
346 323 283 3 359 26 35 40 32 20 3 5 10 23 324 245 239 238 208 211 170 162 167 148 152 141 127 130 116 139 192 199 248 259 279 295 291 310 326 330 334 332 332
338 341 33 45 52 65 68 42 349 21 43 39 38 33 30 51 103 203 200 209 214 178 173 174 165 151 184 184 158 167 139 128 129 67 348 279 303 338 348 349 342 339 341
26 8 53 48 34 60 110 15 353 47 70 61 55 50 56 58 70 98 155 177 197 193 178 186 178 166 169 162 156 167 192 165 153 86 66 45 17 19 10 352 348 352 353
70 52 57 53 42 43 55 39 11 45 58 62 61 57 60 52 72 84 98 136 164 180 199 172 178 177 177 182 185 175 156 116 87 52 27 30 14 359 345 345 342 340 345
90 95 82 71 55 71 83 53 17 56 66 63 58 64 64 69 91 80 100 108 138 170 189 171 176 180 186 185 176 138 116 105 105 122 33 6 348 343 354 4 1 1 3
85 68 91 92 86 74 77 82 43 43 54 63 63 71 76 74 66 62 64 91 102 129 141 170 177 179 172 157 161 134 176 112 79 88 21 329 352 30 17 20 11 16 17
97 74 94 94 77 64 83 67 85 83 48 68 69 71 74 71 78 68 55 60 90 97 105 133 156 159 160 149 149 138 152 134 130 351 333 46 35 28 15 9 7 359 351
144 111 80 79 93 241 84 97 64 94 78 73 75 72 71 69 76 69 84 66 67 89 108 118 134 140 142 143 137 135 131 135 30 347 349 28 22 15 2 21 4 357 354
152 118 109 127 230 62 119 124 112 93 89 80 66 61 64 74 71 83 93 92 81 76 95 103 105 94 87 67 64 73 91 172 331 310 34 20 8 322 341 352 359 356 354
190 164 162 205 281 152 133 138 117 109 101 110 128 122 110 88 77 78 86 94 111 118 115 124 132 130 135 146 62 83 265 266 285 329 183 222 194 257 335 353 351 12 6
211 200 186 210 248 174 160 158 138 120 124 94 103 119 109 117 86 90 92 99 96 96 95 130 131 136 127 183 192 156 92 31 291 341 34 288 192 259 303 321 331 339 359
218 217 200 217 237 199 180 170 139 137 161 178 141 110 118 115 102 73 80 86 92 84 85 75 60 58 52 53 159 195 218 311 303 258 188 287 283 301 324 318 328 312 326
220 233 201 216 231 206 197 185 160 168 216 213 150 175 130 127 132 128 93 34 30 45 20 57 60 48 44 40 23 302 162 103 34 173 197 242 355 288 304 305 288 295 307